David Mainge

Chefscout - Kariobangi Sharks
6 Mai 2027
Donnerstag
Verarbeitung

Persönlichkeit

Anpassungsfähigkeit (13) Ehrgeiz (16) Kontroverse (7) Loyalität (19) Druck (14) Professionalität (1) Fairness (13) Temperament (2)

Profil

Trainerstil Demokratisch
Lizenz Nationale A
Entschlossenheit 6
Menschenführung 3
Motivation 4
Disziplin 6
Arbeitszufriedenheit
100%
Ermüdung
0%
Rolle Chefscout
Gehalt 30.7K p/W
Vertrag 14.03.2030

Leistung

Verhalten Gut
Trainingseffektivität
33%
Spielerentwicklung
35%
Verletzungsprävention
10%
Taktische Umsetzung
40%

Letzte Ereignisse

Nahm an einer Scouting-Besprechung teil 7T her
Nahm an einer Scouting-Besprechung teil 14T her
Spieler begutachtet 14T her
Spieler begutachtet 14T her
Spieler begutachtet 14T her
Spieler begutachtet 14T her
Spieler begutachtet 14T her
Spieler begutachtet 21T her

Aktuell beobachtet

129
Spieler Verein Status Fähigkeit Vertrauen Beobachtet Zuletzt beobachtet Letzte Stimme
Kevin Simiyu Posta Rangers Aktiv 75 / 75 30% 1 / 1m 05.05.2027 -
Victor Omune Gazelle Aktiv 59 / 96 40% 4 27.04.2027 -
Yaya Karim Foullah Edifice Aktiv 82 / 63 40% 1 27.04.2027 -
Omar Bugiel AFC Wimbledon Aktiv 77 / 101 40% 2 25.04.2027 -
Letsie Koapeng Maritzburg United Aktiv 90 / 88 40% 2 25.04.2027 -
Jacopo Manconi Casertana Aktiv 98 / 133 40% 1 24.04.2027 -
Make Aldo Maulidino Gazelle Aktiv 86 / 58 40% 1 24.04.2027 -
Siyabonga Dolly Etoiles du Mande Aktiv 39 / 44 40% 5 23.04.2027 -
Jonah James Mosta Aktiv 94 / 77 40% 3 23.04.2027 -
Christopher Ochieng CotonTchad Aktiv 99 / 76 40% 4 22.04.2027 -
Hamza Issah Hearts of Oak Aktiv 96 / 108 40% 3 22.04.2027 -
Jacob Labovitz ASO Chlef Aktiv 87 / 106 40% 3 20.04.2027 -
Chris Long Newport County Aktiv 78 / 75 40% 3 18.04.2027 -
Issa Youssouf AS Algoy Aktiv 88 / 70 40% 3 18.04.2027 -
Mahamat Adam Ali AS PSI Aktiv 82 / 92 40% 3 17.04.2027 -
Paul Agyei Heart of Lions Aktiv 76 / 56 40% 1 17.04.2027 -
Igbunu Evwierhurhoma Warri Wolves Aktiv 88 / 70 40% 4 16.04.2027 -
Tosin Olawale El-Kanemi Warriors Aktiv 73 / 100 40% 4 15.04.2027 -
Ferdinando Mastroianni Pro Patria Aktiv 80 / 89 40% 3 15.04.2027 -
Zakka John El-Kanemi Warriors Aktiv 104 / 70 40% 2 14.04.2027 -
Gafar Saka Plateau United Aktiv 97 / 112 40% 1 13.04.2027 -
Dilan Neves Benfica Aktiv 75 / 70 40% 2 12.04.2027 -
Gustavo Ferreira Benfica Aktiv 72 / 93 40% 2 12.04.2027 -
Ezechiel Djimet Stars Jeunes Talents Aktiv 71 / 80 40% 1 11.04.2027 -
Tom Bradshaw Gillingham Aktiv 113 / 92 40% 3 10.04.2027 -
Oussama Bouguerri JS Saoura Aktiv 98 / 112 40% 1 10.04.2027 -
Franklyn Akammadu Bra Aktiv 106 / 89 40% 1 09.04.2027 -
Mezack Afriyie Aduana Stars Aktiv 101 / 109 40% 2 08.04.2027 -
Aidan Dausch AC Ajaccio Aktiv 82 / 92 40% 2 04.04.2027 -
Vernon Masara Wycombe Wanderers Aktiv 109 / 104 40% 2 04.04.2027 -
Nicke Kabamba Bromley Aktiv 88 / 73 40% 1 31.03.2027 -
Ernest Appiah Wa All Stars Aktiv 85 / 84 40% 6 29.03.2027 -
Carlos Richards Bromley Aktiv 86 / 94 40% 1 29.03.2027 -
Loan Merrifield FC Nantes Aktiv 101 / 98 40% 1 25.03.2027 -
Michael Cheek Bromley Aktiv 98 / 114 40% 3 24.03.2027 -
Bonginkosi Dlamini Polokwane City Aktiv 97 / 101 40% 4 23.03.2027 -
Ahmed Farouk Wadi Degla Aktiv 115 / 80 40% 3 21.03.2027 -
Peter Dakka AS Korofina Aktiv 86 / 91 40% 4 19.03.2027 -
Sifiso Kekana Bidvest Wits Aktiv 78 / 98 40% 2 18.03.2027 -
Jeremiah Okine-Peters Ospitaletto Aktiv 70 / 67 40% 2 17.03.2027 -
Mahamat Harouna Elect Sport Aktiv 74 / 97 40% 1 17.03.2027 -
Moussa Maréga VfL Wolfsburg Aktiv 128 / 127 40% 1 13.03.2027 -
Léiner Escalante Palermo Aktiv 110 / 107 40% 1 13.03.2027 -
Billy Waters Oldham Athletic Aktiv 87 / 76 40% 1 11.03.2027 -
Theo Williams Jr. Panthere du Nde Aktiv 69 / 89 40% 1 10.03.2027 -
Thabiso Msane BA All Stars Aktiv 98 / 79 40% 2 08.03.2027 -
Miguel Monteiro Oliveirense Aktiv 82 / 107 40% 3 04.03.2027 -
Louis Moult Crewe Alexandra Aktiv 85 / 93 40% 1 28.02.2027 -
Dries Meunier Mouscron Aktiv 85 / 87 40% 1 27.02.2027 -
Bassey John Enyimba Aktiv 81 / 75 40% 1 27.02.2027 -
Johnson Amuzu Berekum Chelsea Aktiv 79 / 77 40% 3 26.02.2027 -
Walterson Cittadella Aktiv 118 / 111 40% 1 19.02.2027 -
Tashreeq Morris Kaizer Chiefs Aktiv 113 / 113 40% 1 18.02.2027 -
Reuben Reid Barnsley Aktiv 93 / 84 40% 1 13.02.2027 -
Isaac Mintah Asante Kotoko Aktiv 80 / 58 40% 1 10.02.2027 -
Josh Kelly Arouca Aktiv 91 / 98 40% 1 10.02.2027 -
Ethan Ndiweni Newcastle United Aktiv 71 / 94 40% 1 07.02.2027 -
Will Merry Milton Keynes Dons Aktiv 52 / 103 40% 1 06.02.2027 -
Mahamat Adda CotonTchad Aktiv 59 / 68 40% 1 06.02.2027 -
Idris Ajiya Nasarawa United Aktiv 68 / 75 40% 1 03.02.2027 -
Michael Spellman Newport County Aktiv 60 / 89 40% 2 01.02.2027 -
Oli Hawkins Barnet Aktiv 101 / 105 40% 1 01.02.2027 -
Harrison Ofori Liberty Professionals Aktiv 112 / 124 40% 3 02.01.2027 -
Jaime Báez Latina Aktiv 103 / 118 40% 1 02.01.2027 -
Abubakar Garba Grasshopper Aktiv 99 / 105 40% 1 25.12.2026 -
Chris Sze Wigan Athletic Aktiv 83 / 111 40% 1 25.12.2026 -
James Kinyanjui AFC Leopards Abgelehnt 98 / 80 40% 3 24.12.2026 Ablehnen
Michael Adu-Poku Watford Aktiv 83 / 107 40% 3 24.12.2026 -
Alfred Emoni Bandari Aktiv 96 / 97 40% 2 22.12.2026 -
Paul Glatzel Swindon Town Aktiv 75 / 102 40% 2 18.12.2026 -
Amani Richards Zwolle Aktiv 108 / 101 40% 1 17.12.2026 -
Miloš Jovičić Zabbar St. Patrick Aktiv 67 / 86 40% 2 16.12.2026 -
Zach Marsh Crystal Palace Aktiv 104 / 67 40% 1 15.12.2026 -
Fin Roberts Crewe Alexandra Aktiv 95 / 79 40% 1 10.12.2026 -
Musa Masika Mathare United Aktiv 67 / 95 40% 3 09.12.2026 -
Mustapha Jah Floriana Aktiv 85 / 85 40% 3 09.12.2026 -
Luke Daniels University of Pretoria Aktiv 75 / 88 40% 2 06.12.2026 -
Ciaran McGuckin Portimonense Aktiv 72 / 67 40% 1 06.12.2026 -
Abdulmajid Aminu Barau Aktiv 87 / 85 40% 3 03.12.2026 -
Uzoma Chinonso Ikorodu City Aktiv 66 / 101 40% 3 03.12.2026 -
Kamarai Swyer Northampton Town Aktiv 71 / 71 40% 1 02.12.2026 -
Eric Kapaito Tusker Aktiv 94 / 77 40% 3 30.11.2026 -
Thabo Nkwana MC El Bayadh Aktiv 104 / 76 40% 2 29.11.2026 -
Ephraim Yeboah Bristol City Aktiv 101 / 81 40% 3 27.11.2026 -
Benson Omalla Nairobi United Aktiv 82 / 75 40% 1 27.11.2026 -
Mandla Dolly Black Aces Aktiv 63 / 64 40% 1 24.11.2026 -
Michael Ephson Heart of Lions Aktiv 94 / 62 40% 1 24.11.2026 -
Lewis McCann Fleetwood Town Aktiv 101 / 114 40% 3 23.11.2026 -
George Miller Cheltenham Town Aktiv 69 / 80 40% 1 23.11.2026 -
Abdulrahman Muniru USM Khenchela Aktiv 101 / 79 40% 1 21.11.2026 -
Ranel Young Bristol City Aktiv 99 / 75 40% 1 19.11.2026 -
Victor Mbaoma Tusker Aktiv 90 / 102 40% 2 17.11.2026 -
Hansel Ochieng APS Bomet Aktiv 69 / 64 40% 3 16.11.2026 -
Josh Woods Accrington Stanley Aktiv 87 / 90 40% 5 16.11.2026 -
Emmanuel Dung Bendel Insurance Aktiv 93 / 107 40% 2 15.11.2026 -
Hassan Beja AFC Leopards Aktiv 93 / 73 40% 2 13.11.2026 -
Alvin Mangeni Kenya Police Aktiv 79 / 89 40% 2 11.11.2026 -
Samuel Ayanrinde Kenya Police Verloren 102 / 91 40% 2 11.11.2026 -
Andrew Dallas Lugano Aktiv 112 / 84 40% 4 10.11.2026 -
Pemi Aderoju Peterborough United Aktiv 88 / 83 40% 1 08.11.2026 -
Augustine Nwaorisa Enyimba Aktiv 94 / 103 40% 1 07.11.2026 -
Samuel Ssenyonjo AFC Leopards Aktiv 98 / 78 40% 2 06.11.2026 -
Ruari Paton Port Vale Aktiv 109 / 85 40% 3 05.11.2026 -
Joshua Kayode Sochaux Aktiv 76 / 103 40% 1 03.11.2026 -
Derrick Otanga Kakamega Homeboyz Aktiv 88 / 102 40% 1 03.11.2026 -
Josh March Crewe Alexandra Aktiv 89 / 116 40% 2 02.11.2026 -
Simeon Umeh Wikki Tourists Aktiv 100 / 80 40% 1 02.11.2026 -
Dennis Oalo Tusker Aktiv 72 / 88 40% 1 30.10.2026 -
Julian Larsson Burton Albion Aktiv 93 / 88 40% 1 30.10.2026 -
Nyamawi Beja Bandari Aktiv 95 / 96 40% 2 29.10.2026 -
Elliott List Northampton Town Aktiv 99 / 74 40% 1 22.10.2026 -
Charlie Caton Accrington Stanley Aktiv 93 / 62 40% 1 21.10.2026 -
Hakeeb Adelakun Doncaster Rovers Aktiv 106 / 98 40% 1 20.10.2026 -
Shawn McCoulsky Harrogate Town Aktiv 102 / 67 40% 1 15.10.2026 -
Cameron Gardner Grimsby Town Aktiv 75 / 74 40% 1 15.10.2026 -
Azeez Agboola Remo Stars Aktiv 80 / 93 40% 1 13.10.2026 -
Joe Boggan Blackburn Rovers Aktiv 60 / 86 40% 1 12.10.2026 -
Max Dickov Mansfield Town Aktiv 59 / 63 40% 1 04.10.2026 -
William Wadri Bandari Aktiv 69 / 83 40% 1 03.10.2026 -
Thomas Ofori BA All Stars Aktiv 62 / 61 40% 1 03.10.2026 -
Maleace Asamoah Wigan Athletic Aktiv 97 / 83 40% 1 01.10.2026 -
Prince Kwabena Owusu Hearts of Oak Aktiv 102 / 57 40% 1 01.10.2026 -
Maï Traoré Notts County Aktiv 70 / 76 40% 1 25.09.2026 -
Mason Bennett Harrogate Town Aktiv 98 / 108 40% 1 23.09.2026 -
Marley Wilson Leeds United Aktiv 64 / 81 40% 1 09.09.2026 -
Tomiwa Awojob Ikorodu City Aktiv 98 / 105 40% 1 09.09.2026 -
Remy Rees-Dottin Bournemouth Aktiv 97 / 70 40% 1 01.08.2026 -
Clinton Jephta Niger Tornadoes Aktiv 82 / 84 40% 1 01.08.2026 -
Jamie Jellis Walsall Aktiv 85 / 111 40% 1 01.08.2026 -